| time (UTC) | temp F | wind direction | speed knots | gust knots | rain 1hr in | rain 24hr in | rain mn in | humidity % | barometer mb |
| 20260504005516 | 65 | 2 | 0.9 | 3.5 | 0.00 | 0.00 | 0.00 | 27 | 1016.2 |
| 20260504004516 | 66 | 17 | 0.0 | 2.6 | 0.00 | 0.00 | 0.00 | 27 | 1016.1 |
| 20260504003516 | 66 | 92 | 0.0 | 2.6 | 0.00 | 0.00 | 0.00 | 27 | 1016.1 |
| 20260504002517 | 67 | 1 | 0.9 | 2.6 | 0.00 | 0.00 | 0.00 | 26 | 1016.1 |
| 20260504001517 | 68 | 39 | 0.0 | 1.7 | 0.00 | 0.00 | 0.00 | 25 | 1016.0 |
| 20260504000515 | 69 | 32 | 0.9 | 4.3 | 0.00 | 0.00 | 0.00 | 23 | 1015.9 |
| 20260503235515 | 70 | 352 | 0.0 | 1.7 | 0.00 | 0.00 | 0.00 | 21 | 1016.0 |
| 20260503234536 | 70 | 50 | 0.9 | 2.6 | 0.00 | 0.00 | 0.00 | 21 | 1016.1 |
| 20260503233536 | 70 | 46 | 0.0 | 2.6 | 0.00 | 0.00 | 0.00 | 21 | 1016.1 |
| 20260503232516 | 71 | 337 | 0.9 | 2.6 | 0.00 | 0.00 | 0.00 | 20 | 1016.0 |
| 20260503231517 | 72 | 355 | 0.9 | 3.5 | 0.00 | 0.00 | 0.00 | 19 | 1016.0 |
| 20260503230514 | 73 | 11 | 0.0 | 1.7 | 0.00 | 0.00 | 0.00 | 18 | 1016.0 |
| 20260503225515 | 73 | 5 | 0.9 | 2.6 | 0.00 | 0.00 | 0.00 | 18 | 1016.0 |
| 20260503224535 | 73 | 343 | 0.9 | 2.6 | 0.00 | 0.00 | 0.00 | 18 | 1016.0 |
| 20260503223516 | 73 | 50 | 0.0 | 1.7 | 0.00 | 0.00 | 0.00 | 18 | 1016.1 |
| 20260503222516 | 73 | 215 | 0.0 | 2.6 | 0.00 | 0.00 | 0.00 | 18 | 1016.2 |
| 20260503221536 | 73 | 230 | 0.0 | 3.5 | 0.00 | 0.00 | 0.00 | 18 | 1016.4 |
| 20260503220517 | 73 | 228 | 0.0 | 2.6 | 0.00 | 0.00 | 0.00 | 17 | 1016.6 |
| 20260503215515 | 73 | 160 | 0.0 | 1.7 | 0.00 | 0.00 | 0.00 | 18 | 1016.7 |
| 20260503214516 | 73 | 226 | 0.9 | 2.6 | 0.00 | 0.00 | 0.00 | 17 | 1016.9 |
| 20260503213515 | 74 | 64 | 0.9 | 3.5 | 0.00 | 0.00 | 0.00 | 18 | 1016.9 |
| 20260503212516 | 73 | 53 | 0.0 | 2.6 | 0.00 | 0.00 | 0.00 | 16 | 1017.2 |
| 20260503211536 | 74 | 110 | 0.0 | 0.9 | 0.00 | 0.00 | 0.00 | 17 | 1017.3 |
| 20260503210517 | 75 | 146 | 0.9 | 2.6 | 0.00 | 0.00 | 0.00 | 16 | 1017.4 |
| 20260503205537 | 74 | 265 | 0.0 | 1.7 | 0.00 | 0.00 | 0.00 | 17 | 1017.5 |
| 20260503204515 | 74 | 274 | 0.9 | 3.5 | 0.00 | 0.00 | 0.00 | 16 | 1017.8 |
| 20260503203515 | 75 | 38 | 1.7 | 7.8 | 0.00 | 0.00 | 0.00 | 17 | 1017.9 |
| 20260503202535 | 75 | 112 | 0.9 | 2.6 | 0.00 | 0.00 | 0.00 | 15 | 1018.1 |
| 20260503201536 | 75 | 120 | 0.9 | 3.5 | 0.00 | 0.00 | 0.00 | 16 | 1018.3 |
| 20260503200516 | 75 | 305 | 0.9 | 2.6 | 0.00 | 0.00 | 0.00 | 16 | 1018.5 |
| 20260503195517 | 75 | 301 | 0.9 | 6.1 | 0.00 | 0.00 | 0.00 | 16 | 1018.5 |
| 20260503194015 | 74 | 206 | 0.0 | 1.7 | 0.00 | 0.00 | 0.00 | 16 | 1018.7 |
| 20260503193015 | 72 | 130 | 0.9 | 2.6 | 0.00 | 0.00 | 0.00 | 16 | 1018.8 |
| 20260503192016 | 72 | 141 | 1.7 | 3.5 | 0.00 | 0.00 | 0.00 | 15 | 1018.9 |
| 20260503191056 | 73 | 134 | 0.9 | 2.6 | 0.00 | 0.00 | 0.00 | 17 | 1019.2 |
| 20260503190037 | 73 | 269 | 0.9 | 1.7 | 0.00 | 0.00 | 0.00 | 18 | 1019.5 |
| 20260503185017 | 71 | 52 | 0.9 | 4.3 | 0.00 | 0.00 | 0.00 | 20 | 1019.6 |
| 20260503184037 | 71 | 80 | 0.9 | 2.6 | 0.00 | 0.00 | 0.00 | 20 | 1019.8 |
| 20260503183015 | 70 | 214 | 0.9 | 1.7 | 0.00 | 0.00 | 0.00 | 21 | 1020.0 |
| 20260503182015 | 70 | 352 | 0.0 | 1.7 | 0.00 | 0.00 | 0.00 | 22 | 1020.1 |
| 20260503181015 | 69 | 80 | 0.0 | 1.7 | 0.00 | 0.00 | 0.00 | 23 | 1020.3 |
| 20260503180016 | 68 | 65 | 0.9 | 5.2 | 0.00 | 0.00 | 0.00 | 23 | 1020.3 |
| 20260503175016 | 67 | 250 | 0.9 | 2.6 | 0.00 | 0.00 | 0.00 | 24 | 1020.5 |
| 20260503174017 | 66 | 243 | 0.9 | 3.5 | 0.00 | 0.00 | 0.00 | 24 | 1020.7 |
| 20260503173037 | 66 | 257 | 2.6 | 7.0 | 0.00 | 0.00 | 0.00 | 24 | 1020.9 |
| 20260503172015 | 66 | 254 | 0.9 | 3.5 | 0.00 | 0.00 | 0.00 | 23 | 1021.1 |
| 20260503171015 | 66 | 234 | 1.7 | 5.2 | 0.00 | 0.00 | 0.00 | 23 | 1021.2 |
| 20260503131017 | 51 | 134 | 1.7 | 4.3 | 0.00 | 0.00 | 0.00 | 40 | 1021.7 |
| 20260503081015 | 50 | 133 | 1.7 | 3.5 | 0.00 | 0.00 | 0.00 | 36 | 1021.5 |
| 20260503072037 | 51 | 130 | 0.9 | 2.6 | 0.00 | 0.00 | 0.00 | 34 | 1021.9 |
| 20260503071015 | 52 | 135 | 0.9 | 2.6 | 0.00 | 0.00 | 0.00 | 34 | 1021.9 |
| 20260503055015 | 53 | 134 | 3.5 | 7.0 | 0.00 | 0.00 | 0.00 | 33 | 1022.0 |
| 20260503054015 | 53 | 133 | 3.5 | 8.7 | 0.00 | 0.00 | 0.00 | 33 | 1022.0 |
| 20260503053036 | 52 | 135 | 3.5 | 7.0 | 0.00 | 0.00 | 0.00 | 34 | 1021.9 |
| 20260503052016 | 52 | 136 | 2.6 | 7.8 | 0.00 | 0.00 | 0.00 | 33 | 1021.9 |
| 20260503051016 | 52 | 138 | 2.6 | 7.0 | 0.00 | 0.00 | 0.00 | 33 | 1022.0 |
| 20260503050037 | 53 | 141 | 2.6 | 5.2 | 0.00 | 0.00 | 0.00 | 33 | 1022.0 |
| 20260503045015 | 53 | 137 | 1.7 | 7.0 | 0.00 | 0.00 | 0.00 | 33 | 1022.0 |
| 20260503044015 | 53 | 134 | 1.7 | 6.1 | 0.00 | 0.00 | 0.00 | 33 | 1022.1 |
| 20260503043016 | 53 | 137 | 2.6 | 9.6 | 0.00 | 0.00 | 0.00 | 33 | 1022.2 |
| 20260503042016 | 54 | 135 | 2.6 | 7.8 | 0.00 | 0.00 | 0.00 | 33 | 1022.2 |
| 20260503041016 | 54 | 135 | 2.6 | 7.8 | 0.00 | 0.00 | 0.00 | 33 | 1022.2 |
| 20260503040017 | 55 | 136 | 3.5 | 10.4 | 0.00 | 0.00 | 0.00 | 32 | 1022.2 |
| 20260503035014 | 55 | 134 | 1.7 | 6.1 | 0.00 | 0.00 | 0.00 | 31 | 1022.2 |
| 20260503034015 | 56 | 136 | 2.6 | 7.8 | 0.00 | 0.00 | 0.00 | 31 | 1022.1 |
| 20260503033035 | 56 | 135 | 2.6 | 8.7 | 0.00 | 0.00 | 0.00 | 30 | 1022.1 |
| 20260503032016 | 57 | 134 | 2.6 | 8.7 | 0.00 | 0.00 | 0.00 | 30 | 1022.0 |
| 20260503031016 | 57 | 136 | 2.6 | 7.8 | 0.00 | 0.00 | 0.00 | 30 | 1021.9 |
| 20260503030017 | 58 | 139 | 3.5 | 8.7 | 0.00 | 0.00 | 0.00 | 31 | 1021.8 |
| 20260503025017 | 58 | 135 | 2.6 | 6.1 | 0.00 | 0.00 | 0.00 | 31 | 1021.8 |
| 20260503024015 | 59 | 136 | 1.7 | 7.8 | 0.00 | 0.00 | 0.00 | 31 | 1021.8 |
| 20260503023015 | 59 | 135 | 1.7 | 6.1 | 0.00 | 0.00 | 0.00 | 30 | 1021.7 |
| 20260503022016 | 60 | 133 | 1.7 | 5.2 | 0.00 | 0.00 | 0.00 | 29 | 1021.6 |
| 20260503021016 | 61 | 133 | 1.7 | 5.2 | 0.00 | 0.00 | 0.00 | 28 | 1021.3 |
| 20260503020016 | 62 | 139 | 1.7 | 5.2 | 0.00 | 0.00 | 0.00 | 28 | 1021.1 |
| 20260503015017 | 63 | 135 | 1.7 | 5.2 | 0.00 | 0.00 | 0.00 | 27 | 1021.1 |
| 20260503014017 | 64 | 136 | 0.9 | 5.2 | 0.00 | 0.00 | 0.00 | 26 | 1021.0 |
| 20260503013015 | 65 | 143 | 1.7 | 4.3 | 0.00 | 0.00 | 0.00 | 23 | 1021.0 |
| 20260503012015 | 66 | 127 | 0.0 | 1.7 | 0.00 | 0.00 | 0.00 | 22 | 1020.9 |
| 20260503011035 | 66 | 95 | 0.0 | 1.7 | 0.00 | 0.00 | 0.00 | 20 | 1020.9 |